Tracking 28790 objects as of 19-Apr-2024
HD Live streaming from Space Station
objects crossing your sky now

SL-6 R/B(2)

Track SL-6 R/B(2) now!


NORAD ID: 6302
Int'l Code: 1972-072E
Perigee: 5,179.6 km
Apogee: 34,639.7 km
Inclination: 70.0 °
Period: 706.7 minutes
Semi major axis: 26280 km
RCS: 7.4299 m2 (large)
Launch date: September 19, 1972
Source: Commonwealth of Independent States (former USSR) (CIS)
Launch site: PLESETSK MISSILE AND SPACE COMPLEX (PKMTR)

Note: This is a ROCKET BODY
Your satellite tracking list
Your tracking list is empty




NASA's NSSDC Master Catalog

Two Line Element Set (TLE):
1 06302U 72072E   24108.96813653  .00000425  00000-0  00000-0 0  9996
2 06302  70.0306 346.5799 5604887 289.0144  20.2659  2.03774016216573
Source of the keplerian elements: AFSPC